Hourly Data Report for October 10, 2015

All times are specified in Local Standard Time (LST). Add 1 hour to adjust for Daylight Saving Time where and when it is observed.

WINNIPEG A CS
MANITOBA

49°55'00.000" N
97°14'58.000" W
238.70 m
502S001
71849
XWG

Download Data

Hourly Data (October 2015)
Hourly Data Report for October 10, 2015
Temp Definition
°C
Dew Point Temp Definition
°C
Rel Hum Definition
%
Wind Dir Definition
10's deg

Wind Spd Definition
km/h
Visibility Definition
km
Stn Press Definition
kPa
Hmdx Definition


Wind Chill Definition


Weather Definition


TIME
00:00 11.1 7.3 78 19 31   97.84     LegendNANA
01:00 11.1 7.4 78 19 31   97.72     LegendNANA
02:00 11.4 7.6 77 20 30   97.62     LegendNANA
03:00 11.0 7.5 79 19 28   97.55     LegendNANA
04:00 11.2 7.6 79 20 29   97.45     LegendNANA
05:00 10.5 7.5 82 19 25   97.39     LegendNANA
06:00 10.2 7.5 83 19 21   97.35     LegendNANA
07:00 10.6 7.7 83 19 22   97.23     LegendNANA
08:00 10.9 8.0 82 19 8   97.25     LegendNANA
09:00 11.9 8.7 81 19 19   97.16     LegendNANA
10:00 13.8 9.7 77 19 17   97.18     LegendNANA
11:00 16.1 10.9 71 20 18   97.14     LegendNANA
12:00 18.6 11.5 63 20 16   97.09     LegendNANA
13:00 21.9 11.0 50 24 19   97.01     LegendNANA
14:00 21.2 11.4 53 23 16   96.98     LegendNANA
15:00 21.6 11.0 51 25 14   96.93     LegendNANA
16:00 20.8 11.5 55 24 11   96.92     LegendNANA
17:00 20.4 11.4 56 24 9   96.90     LegendNANA
18:00 18.3 11.0 63 21 7   96.87     LegendNANA
19:00 16.6 11.2 71 21 11   96.86     LegendNANA
20:00 15.6 10.5 72 23 13   96.84     LegendNANA
21:00 17.2 10.5 65 24 14   96.83     LegendNANA
22:00 15.2 10.0 71 24 13   96.80     LegendNANA
23:00 14.6 9.5 72 23 6   96.80     LegendNANA

Notes on Data Quality.

Legend

  • E = Estimated
  • M = Missing
  • NA = Not Available
  • ‡ = Partner data that is not subject to review by the National Climate Archives
Date modified: